Location: Nelson
(41.2830°S, 173.2830°E)
Time: 06:04:36
(UTC+13:00)

Meteor 2-13 Rocket - Pass Details

Date: 24 January 2019
Orbit: 935 x 959 km, 82.5° (Epoch: 18 February)

Event Time Altitude Azimuth Distance (km) Brightness Sun altitude
Exits shadow 22:27:55 - 352° (N) 3,398 7.0 -15.1°
Reaches altitude 10° 22:29:53 10° 351° (N) 2,648 6.4 -15.3°
Maximum altitude 22:35:57 83° 263° (W) 960 4.5 -16.1°
Drops below altitude 10° 22:42:08 10° 174° (S) 2,692 7.4 -16.9°
Sets 22:44:39 0° 172° (S) 3,647 8.1 -17.3°
